Terminal Aerodrome Forecast
Issued by NWS

Home | Current Version | Previous Version | Graphics & Text | Print | Product List | Glossary On
Versions: 1 2 3 4 5 6 7 8 9 10 11 12 13 14 15 16 17 18 19 20 21 22 23 24 25
116
FTUS43 KLOT 061731
TAFDPA
TAF
KDPA 061731Z 0618/0718 24010KT P6SM OVC020
     FM062100 24013KT P6SM SCT015
     FM070000 21007KT P6SM FEW015 BKN200
     FM070700 22009KT P6SM OVC080
     FM071300 23013KT P6SM SCT100 BKN200
     FM071600 24013G21KT P6SM SCT100 BKN180=

USA.gov is the U.S. government's official web portal to all federal, state and local government web resources and services.